Regional Weather Roundup
Issued by NWS

Home | Current Version | Previous Version | Text Only | Print | Product List | Glossary Off
Versions: 1 2 3 4 5 6 7 8 9 10 11 12 13 14 15 16 17 18 19 20 21 22 23 24 25 26 27 28 29 30 31 32 33 34 35 36 37 38 39 40 41 42 43 44 45 46 47 48 49 50

000
ASUS44 KMEG 262010
RWRTN
TENNESSEE HOURLY STATE WEATHER ROUNDUP
NATIONAL WEATHER SERVICE MEMPHIS TN
300 PM CDT FRI MAY 26 2017

TNZ002-004-019-021-049-052-054-088>092-262100-
WEST TENNESSEE

CITY           SKY/WX    TMP DP  RH WIND       PRES   REMARKS
MEMPHIS INTL   PTSUNNY   83  66  56 S21G31    29.86F
NWS MEMPHIS      N/A     84 N/A N/A MISG        N/A
JACKSON        SUNNY     87  57  35 SW21G32   29.85F
DYERSBURG        N/A    N/A N/A N/A MISG        N/A
COVINGTON      PTSUNNY   82  64  54 SW21G30   29.84F
UNION CITY     SUNNY     88  59  37 SW21G28   29.80F
BOLIVAR        SUNNY     84  57  39 S16G26    29.86F
PARIS          SUNNY     84  57  39 S15G26    29.82F
HUNTINGDON     SUNNY     86  57  37 S17G26    29.83S
LEXINGTON      SUNNY     84  57  39 MISG      29.85F
SELMER         SUNNY     84  57  39 SW10G22   29.88F
SAVANNAH       SUNNY     86  57  37 SW22G30   29.88F
$$

TNZ008-025-027-028-033-062-065-066-262100-
NORTH MIDDLE TENNESSEE

CITY           SKY/WX    TMP DP  RH WIND       PRES   REMARKS
NASHVILLE      MOSUNNY   86  57  37 SW17G26   29.88F
PORTLAND       SUNNY     82  64  54 S15G23    29.86F
CLARKSVILLE    SUNNY     83  57  41 S15G24    29.84F
SMYRNA         SUNNY     85  62  46 S12G18    29.89F
COOKEVILLE     SUNNY     79  63  57 S13       29.93F
GALLATIN       MOSUNNY   84  64  51 VRB6G15   29.90F
CROSSVILLE     MOSUNNY   74  60  61 S8        29.99F
$$

TNZ061-075-076-078-094-096-097-262100-
SOUTH MIDDLE TENNESSEE

CITY           SKY/WX    TMP DP  RH WIND       PRES   REMARKS
FAYETTEVILLE   SUNNY     82  63  51 SW12G18   29.95F
TULLAHOMA      SUNNY     81  57  44 SW10      29.96F
WINCHESTER     MOSUNNY   84  63  48 S9          N/A
MCMINNVILLE    SUNNY     82  64  54 S12       29.94F
COLUMBIA       SUNNY     82  59  44 SW16      29.88F
SHELBYVILLE    SUNNY     82  63  51 SW10G21   29.93F
$$

TNZ017-018-042-046-047-262100-
NORTHEAST TENNESSEE

CITY           SKY/WX    TMP DP  RH WIND       PRES   REMARKS
TRI CITIES     MOSUNNY   75  52  44 SW12      29.99F
ELIZABETHTON   MOSUNNY   73  54  49 W12       29.99F
$$

TNZ012-013-036-069-073-074-262100-
CENTRAL EAST TENNESSEE

CITY           SKY/WX    TMP DP  RH WIND       PRES   REMARKS
KNOXVILLE      PTSUNNY   77  58  51 S9        29.97F
OAK RIDGE      MOSUNNY   79  57  46 W7        29.97F
DOWNTOWN KNOXV MOSUNNY   79  61  53 SW8       29.97F
GATLINBURG     SUNNY     79  55  44 VRB6      29.98F
MORRISTOWN     SUNNY     75  55  50 SW9G15    29.98F
JACKSBORO      MOSUNNY   77  61  57 S9G15     29.97F
$$

TNZ083-085-099-262100-
SOUTHEAST TENNESSEE

CITY           SKY/WX    TMP DP  RH WIND       PRES   REMARKS
CHATTANOOGA    MOSUNNY   82  59  45 SW10      29.97F
$$

SKY/WX REPORTED AS FAIR MEANS FEW OR NO CLOUDS BELOW
12 THOUSAND FEET.




USA.gov is the U.S. government's official web portal to all federal, state and local government web resources and services.